Time,TemperatureF,DewpointF,PressureIn,WindDirection,WindDirectionDegrees,WindSpeedMPH,WindSpeedGustMPH,Humidity,HourlyPrecipIn,Conditions,Clouds,dailyrainin,SoftwareType,DateUTC
2013-04-21 00:01:00,45.0,27.0,30.07,WNW,292,15.0,-999.0,49,-99.99,,,-99.99,,2013-04-21 06:01:00,
2013-04-21 00:12:00,45.0,27.0,30.07,WNW,292,15.0,-999.0,49,-99.99,,,-99.99,,2013-04-21 06:12:00,
2013-04-21 00:21:00,44.0,27.0,30.07,WNW,294,12.0,-999.0,51,-99.99,,,-99.99,,2013-04-21 06:21:00,
2013-04-21 00:32:00,43.0,27.0,30.07,WNW,299,7.0,-999.0,52,-99.99,,,-99.99,,2013-04-21 06:32:00,
2013-04-21 00:42:00,43.0,27.0,30.07,WNW,299,7.0,-999.0,52,-99.99,,,-99.99,,2013-04-21 06:42:00,
2013-04-21 00:52:00,43.0,26.0,30.07,West,277,11.0,-999.0,50,-99.99,,,-99.99,,2013-04-21 06:52:00,
2013-04-21 01:01:00,43.0,26.0,30.07,WNW,295,10.0,-999.0,50,-99.99,,,-99.99,,2013-04-21 07:01:00,
2013-04-21 01:11:00,43.0,26.0,30.07,WNW,296,8.0,-999.0,51,-99.99,,,-99.99,,2013-04-21 07:11:00,
2013-04-21 01:21:00,43.0,26.0,30.07,WNW,296,8.0,-999.0,51,-99.99,,,-99.99,,2013-04-21 07:21:00,
2013-04-21 01:31:00,43.0,26.0,30.07,WNW,284,11.0,-999.0,50,-99.99,,,-99.99,,2013-04-21 07:31:00,
2013-04-21 01:41:00,43.0,26.0,30.07,WNW,284,11.0,-999.0,50,-99.99,,,-99.99,,2013-04-21 07:41:00,
2013-04-21 01:52:00,43.0,26.0,30.08,WNW,297,11.0,-999.0,51,-99.99,,,-99.99,,2013-04-21 07:52:00,
2013-04-21 02:01:00,43.0,27.0,30.07,WNW,298,8.0,-999.0,52,-99.99,,,-99.99,,2013-04-21 08:01:00,
2013-04-21 02:11:00,43.0,27.0,30.07,WNW,298,8.0,-999.0,52,-99.99,,,-99.99,,2013-04-21 08:11:00,
2013-04-21 02:21:00,43.0,27.0,30.08,WNW,285,8.0,-999.0,53,-99.99,,,-99.99,,2013-04-21 08:21:00,
2013-04-21 02:31:00,41.0,27.0,30.08,West,279,4.0,-999.0,56,-99.99,,,-99.99,,2013-04-21 08:31:00,
2013-04-21 02:41:00,41.0,27.0,30.08,West,279,4.0,-999.0,56,-99.99,,,-99.99,,2013-04-21 08:41:00,
2013-04-21 02:52:00,39.0,26.0,30.07,WNW,282,4.0,-999.0,60,-99.99,,,-99.99,,2013-04-21 08:52:00,
2013-04-21 03:01:00,39.0,26.0,30.07,WNW,292,8.0,-999.0,60,-99.99,,,-99.99,,2013-04-21 09:01:00,
2013-04-21 03:11:00,39.0,26.0,30.07,WNW,292,8.0,-999.0,60,-99.99,,,-99.99,,2013-04-21 09:11:00,
2013-04-21 03:21:00,40.0,26.0,30.07,WNW,288,9.0,-999.0,58,-99.99,,,-99.99,,2013-04-21 09:21:00,
2013-04-21 03:32:00,39.0,26.0,30.07,WNW,287,7.0,-999.0,60,-99.99,,,-99.99,,2013-04-21 09:32:00,
2013-04-21 03:42:00,39.0,26.0,30.07,WNW,287,7.0,-999.0,60,-99.99,,,-99.99,,2013-04-21 09:42:00,
2013-04-21 03:53:00,39.0,26.0,30.08,West,264,5.0,-999.0,59,-99.99,,,-99.99,,2013-04-21 09:53:00,
2013-04-21 04:02:00,38.0,27.0,30.08,West,279,5.0,-999.0,63,-99.99,,,-99.99,,2013-04-21 10:02:00,
2013-04-21 04:12:00,38.0,27.0,30.08,West,279,5.0,-999.0,63,-99.99,,,-99.99,,2013-04-21 10:12:00,
2013-04-21 04:22:00,37.0,26.0,30.08,WSW,243,5.0,-999.0,64,-99.99,,,-99.99,,2013-04-21 10:22:00,
2013-04-21 04:32:00,37.0,26.0,30.08,SW,236,4.0,-999.0,65,-99.99,,,-99.99,,2013-04-21 10:32:00,
2013-04-21 04:42:00,37.0,26.0,30.08,SW,236,4.0,-999.0,65,-99.99,,,-99.99,,2013-04-21 10:42:00,
2013-04-21 04:52:00,36.0,26.0,30.09,NW,305,2.0,-999.0,66,-99.99,,,-99.99,,2013-04-21 10:52:00,
2013-04-21 05:02:00,37.0,26.0,30.09,WNW,290,1.0,-999.0,64,-99.99,,,-99.99,,2013-04-21 11:02:00,
2013-04-21 05:11:00,37.0,26.0,30.09,WNW,290,1.0,-999.0,64,-99.99,,,-99.99,,2013-04-21 11:11:00,
2013-04-21 05:22:00,36.0,25.0,30.09,NE,41,2.0,-999.0,64,-99.99,,,-99.99,,2013-04-21 11:22:00,
2013-04-21 05:33:00,36.0,28.0,30.09,NE,51,3.0,-999.0,71,-99.99,,,-99.99,,2013-04-21 11:33:00,
2013-04-21 05:42:00,36.0,28.0,30.09,NE,51,3.0,-999.0,71,-99.99,,,-99.99,,2013-04-21 11:42:00,
2013-04-21 05:52:00,35.0,28.0,30.10,NE,50,2.0,-999.0,76,-99.99,,,-99.99,,2013-04-21 11:52:00,
2013-04-21 06:02:00,35.0,28.0,30.10,NW,306,0.0,-999.0,75,-99.99,,,-99.99,,2013-04-21 12:02:00,
2013-04-21 06:12:00,35.0,28.0,30.10,NW,306,0.0,-999.0,75,-99.99,,,-99.99,,2013-04-21 12:12:00,
2013-04-21 06:22:00,34.0,28.0,30.10,NW,306,0.0,-999.0,79,-99.99,,,-99.99,,2013-04-21 12:22:00,
2013-04-21 06:31:00,33.0,28.0,30.10,NW,306,0.0,-999.0,80,-99.99,,,-99.99,,2013-04-21 12:31:00,
2013-04-21 06:42:00,33.0,28.0,30.10,NW,306,0.0,-999.0,80,-99.99,,,-99.99,,2013-04-21 12:42:00,
2013-04-21 06:52:00,33.0,28.0,30.11,NW,304,0.0,-999.0,83,-99.99,,,-99.99,,2013-04-21 12:52:00,
2013-04-21 07:01:00,34.0,29.0,30.11,NW,304,1.0,-999.0,83,-99.99,,,-99.99,,2013-04-21 13:01:00,
2013-04-21 07:11:00,34.0,29.0,30.11,NW,304,1.0,-999.0,83,-99.99,,,-99.99,,2013-04-21 13:11:00,
2013-04-21 07:21:00,35.0,30.0,30.11,NW,304,0.0,-999.0,82,-99.99,,,-99.99,,2013-04-21 13:21:00,
2013-04-21 07:32:00,34.0,28.0,30.11,NE,36,0.0,-999.0,80,-99.99,,,-99.99,,2013-04-21 13:32:00,
2013-04-21 07:42:00,34.0,28.0,30.11,NE,36,0.0,-999.0,80,-99.99,,,-99.99,,2013-04-21 13:42:00,
2013-04-21 07:52:00,34.0,28.0,30.12,WNW,301,0.0,-999.0,80,-99.99,,,-99.99,,2013-04-21 13:52:00,
2013-04-21 08:01:00,36.0,30.0,30.12,WNW,301,0.0,-999.0,79,-99.99,,,-99.99,,2013-04-21 14:01:00,
2013-04-21 08:11:00,36.0,30.0,30.12,WNW,301,0.0,-999.0,79,-99.99,,,-99.99,,2013-04-21 14:11:00,
2013-04-21 08:21:00,37.0,29.0,30.13,WSW,254,0.0,-999.0,74,-99.99,,,-99.99,,2013-04-21 14:21:00,
2013-04-21 08:31:00,38.0,28.0,30.13,SW,226,3.0,-999.0,68,-99.99,,,-99.99,,2013-04-21 14:31:00,
2013-04-21 08:42:00,38.0,28.0,30.13,SW,226,3.0,-999.0,68,-99.99,,,-99.99,,2013-04-21 14:42:00,
2013-04-21 08:52:00,39.0,28.0,30.12,SW,234,3.0,-999.0,65,-99.99,,,-99.99,,2013-04-21 14:52:00,
2013-04-21 09:01:00,41.0,29.0,30.12,SW,227,3.0,-999.0,62,-99.99,,,-99.99,,2013-04-21 15:01:00,
2013-04-21 09:11:00,41.0,29.0,30.12,SW,227,3.0,-999.0,62,-99.99,,,-99.99,,2013-04-21 15:11:00,
2013-04-21 09:22:00,42.0,27.0,30.12,SW,221,5.0,-999.0,55,-99.99,,,-99.99,,2013-04-21 15:22:00,
2013-04-21 09:33:00,44.0,28.0,30.11,SW,215,3.0,-999.0,52,-99.99,,,-99.99,,2013-04-21 15:33:00,
2013-04-21 09:42:00,44.0,28.0,30.11,SW,215,3.0,-999.0,52,-99.99,,,-99.99,,2013-04-21 15:42:00,
2013-04-21 09:53:00,45.0,27.0,30.11,WNW,298,3.0,-999.0,48,-99.99,,,-99.99,,2013-04-21 15:53:00,
2013-04-21 10:03:00,46.0,25.0,30.11,West,273,5.0,-999.0,44,-99.99,,,-99.99,,2013-04-21 16:03:00,
2013-04-21 10:12:00,46.0,25.0,30.11,West,273,5.0,-999.0,44,-99.99,,,-99.99,,2013-04-21 16:12:00,
2013-04-21 10:22:00,47.0,25.0,30.11,West,274,6.0,-999.0,42,-99.99,,,-99.99,,2013-04-21 16:22:00,
2013-04-21 10:32:00,48.0,24.0,30.10,West,281,5.0,-999.0,39,-99.99,,,-99.99,,2013-04-21 16:32:00,
2013-04-21 10:42:00,48.0,24.0,30.10,West,281,5.0,-999.0,39,-99.99,,,-99.99,,2013-04-21 16:42:00,
2013-04-21 10:52:00,49.0,23.0,30.10,NW,309,6.0,-999.0,36,-99.99,,,-99.99,,2013-04-21 16:52:00,
2013-04-21 11:01:00,50.0,22.0,30.10,WSW,244,6.0,-999.0,33,-99.99,,,-99.99,,2013-04-21 17:01:00,
2013-04-21 11:12:00,50.0,22.0,30.10,WSW,244,6.0,-999.0,33,-99.99,,,-99.99,,2013-04-21 17:12:00,
2013-04-21 11:22:00,51.0,23.0,30.10,SW,222,7.0,-999.0,33,-99.99,,,-99.99,,2013-04-21 17:22:00,
2013-04-21 11:32:00,51.0,22.0,30.09,SSE,154,4.0,-999.0,32,-99.99,,,-99.99,,2013-04-21 17:32:00,
2013-04-21 11:41:00,51.0,22.0,30.09,SSE,154,4.0,-999.0,32,-99.99,,,-99.99,,2013-04-21 17:41:00,
2013-04-21 11:52:00,52.0,22.0,30.09,ESE,117,3.0,-999.0,31,-99.99,,,-99.99,,2013-04-21 17:52:00,
2013-04-21 12:02:00,52.0,22.0,30.08,SW,232,1.0,-999.0,30,-99.99,,,-99.99,,2013-04-21 18:02:00,
2013-04-21 12:11:00,52.0,22.0,30.08,SW,232,1.0,-999.0,30,-99.99,,,-99.99,,2013-04-21 18:11:00,
2013-04-21 12:21:00,52.0,20.0,30.08,ESE,114,6.0,-999.0,28,-99.99,,,-99.99,,2013-04-21 18:21:00,
2013-04-21 12:32:00,55.0,21.0,30.07,South,184,1.0,-999.0,26,-99.99,,,-99.99,,2013-04-21 18:32:00,
2013-04-21 12:42:00,55.0,21.0,30.07,South,184,1.0,-999.0,26,-99.99,,,-99.99,,2013-04-21 18:42:00,
2013-04-21 12:52:00,54.0,21.0,30.06,East,98,7.0,-999.0,27,-99.99,,,-99.99,,2013-04-21 18:52:00,
2013-04-21 13:02:00,55.0,20.0,30.06,South,174,5.0,-999.0,25,-99.99,,,-99.99,,2013-04-21 19:02:00,
2013-04-21 13:11:00,55.0,20.0,30.06,South,174,5.0,-999.0,25,-99.99,,,-99.99,,2013-04-21 19:11:00,
2013-04-21 13:21:00,56.0,19.0,30.05,ESE,120,3.0,-999.0,23,-99.99,,,-99.99,,2013-04-21 19:21:00,
2013-04-21 13:31:00,56.0,18.0,30.04,SW,221,6.0,-999.0,22,-99.99,,,-99.99,,2013-04-21 19:31:00,
2013-04-21 13:42:00,56.0,18.0,30.04,SW,221,6.0,-999.0,22,-99.99,,,-99.99,,2013-04-21 19:42:00,
2013-04-21 13:52:00,57.0,20.0,30.03,NNW,339,3.0,-999.0,23,-99.99,,,-99.99,,2013-04-21 19:52:00,
2013-04-21 14:01:00,56.0,19.0,30.03,SSW,202,6.0,-999.0,23,-99.99,,,-99.99,,2013-04-21 20:01:00,
2013-04-21 14:11:00,56.0,19.0,30.03,SSW,202,6.0,-999.0,23,-99.99,,,-99.99,,2013-04-21 20:11:00,
2013-04-21 14:22:00,57.0,20.0,30.02,SSW,207,9.0,-999.0,23,-99.99,,,-99.99,,2013-04-21 20:22:00,
2013-04-21 14:31:00,55.0,20.0,30.03,WSW,241,15.0,-999.0,25,-99.99,,,-99.99,,2013-04-21 20:31:00,
2013-04-21 14:41:00,55.0,20.0,30.03,WSW,241,15.0,-999.0,25,-99.99,,,-99.99,,2013-04-21 20:41:00,
2013-04-21 14:52:00,54.0,22.0,30.01,SW,215,14.0,-999.0,29,-99.99,,,-99.99,,2013-04-21 20:52:00,
2013-04-21 15:01:00,55.0,22.0,30.01,SW,217,13.0,-999.0,27,-99.99,,,-99.99,,2013-04-21 21:01:00,
2013-04-21 15:12:00,55.0,22.0,30.01,SW,217,13.0,-999.0,27,-99.99,,,-99.99,,2013-04-21 21:12:00,
2013-04-21 15:21:00,54.0,20.0,30.01,SSW,201,6.0,-999.0,26,-99.99,,,-99.99,,2013-04-21 21:21:00,
2013-04-21 15:32:00,54.0,21.0,30.01,WSW,254,2.0,-999.0,27,-99.99,,,-99.99,,2013-04-21 21:32:00,
2013-04-21 15:43:00,54.0,21.0,30.01,WSW,254,2.0,-999.0,27,-99.99,,,-99.99,,2013-04-21 21:43:00,
2013-04-21 15:53:00,53.0,20.0,30.00,SW,219,4.0,-999.0,27,-99.99,,,-99.99,,2013-04-21 21:53:00,
2013-04-21 16:02:00,54.0,21.0,30.00,NNW,338,6.0,-999.0,27,-99.99,,,-99.99,,2013-04-21 22:02:00,
2013-04-21 16:12:00,54.0,21.0,30.00,NNW,338,6.0,-999.0,27,-99.99,,,-99.99,,2013-04-21 22:12:00,
2013-04-21 16:22:00,55.0,21.0,29.98,NW,311,4.0,-999.0,26,-99.99,,,-99.99,,2013-04-21 22:22:00,
2013-04-21 16:32:00,55.0,20.0,29.98,WNW,300,2.0,-999.0,25,-99.99,,,-99.99,,2013-04-21 22:32:00,
2013-04-21 16:42:00,55.0,20.0,29.98,WNW,300,2.0,-999.0,25,-99.99,,,-99.99,,2013-04-21 22:42:00,
2013-04-21 16:52:00,56.0,20.0,29.98,WNW,293,1.0,-999.0,24,-99.99,,,-99.99,,2013-04-21 22:52:00,
2013-04-21 17:02:00,56.0,17.0,29.97,West,276,14.0,-999.0,21,-99.99,,,-99.99,,2013-04-21 23:02:00,
2013-04-21 17:12:00,56.0,17.0,29.97,West,276,14.0,-999.0,21,-99.99,,,-99.99,,2013-04-21 23:12:00,
2013-04-21 17:22:00,56.0,17.0,29.97,West,269,12.0,-999.0,21,-99.99,,,-99.99,,2013-04-21 23:22:00,
2013-04-21 17:32:00,57.0,17.0,29.96,West,270,15.0,-999.0,21,-99.99,,,-99.99,,2013-04-21 23:32:00,
2013-04-21 17:42:00,57.0,17.0,29.96,West,270,15.0,-999.0,21,-99.99,,,-99.99,,2013-04-21 23:42:00,
2013-04-21 17:52:00,57.0,15.0,29.96,SW,229,17.0,-999.0,19,-99.99,,,-99.99,,2013-04-21 23:52:00,
2013-04-21 18:01:00,56.0,14.0,29.97,WSW,239,17.0,-999.0,19,-99.99,,,-99.99,,2013-04-22 00:01:00,
2013-04-21 18:11:00,56.0,14.0,29.97,WSW,239,17.0,-999.0,19,-99.99,,,-99.99,,2013-04-22 00:11:00,
2013-04-21 18:21:00,56.0,17.0,29.97,WSW,241,14.0,-999.0,21,-99.99,,,-99.99,,2013-04-22 00:21:00,
2013-04-21 18:31:00,54.0,16.0,29.98,WSW,247,14.0,-999.0,22,-99.99,,,-99.99,,2013-04-22 00:31:00,
2013-04-21 18:42:00,54.0,16.0,29.98,WSW,247,14.0,-999.0,22,-99.99,,,-99.99,,2013-04-22 00:42:00,
2013-04-21 18:51:00,54.0,18.0,29.97,West,262,13.0,-999.0,24,-99.99,,,-99.99,,2013-04-22 00:51:00,
2013-04-21 19:01:00,53.0,20.0,29.97,WSW,257,16.0,-999.0,27,-99.99,,,-99.99,,2013-04-22 01:01:00,
2013-04-21 19:11:00,53.0,20.0,29.97,WSW,257,16.0,-999.0,27,-99.99,,,-99.99,,2013-04-22 01:11:00,
2013-04-21 19:21:00,52.0,20.0,29.96,WSW,255,15.0,-999.0,28,-99.99,,,-99.99,,2013-04-22 01:21:00,
2013-04-21 19:32:00,52.0,22.0,29.96,West,269,13.0,-999.0,31,-99.99,,,-99.99,,2013-04-22 01:32:00,
2013-04-21 19:41:00,52.0,22.0,29.96,West,269,13.0,-999.0,31,-99.99,,,-99.99,,2013-04-22 01:41:00,
2013-04-21 19:52:00,52.0,22.0,29.96,WSW,258,14.0,-999.0,31,-99.99,,,-99.99,,2013-04-22 01:52:00,
2013-04-21 20:01:00,51.0,21.0,29.96,WSW,257,11.0,-999.0,31,-99.99,,,-99.99,,2013-04-22 02:01:00,
2013-04-21 20:11:00,51.0,21.0,29.96,WSW,257,11.0,-999.0,31,-99.99,,,-99.99,,2013-04-22 02:11:00,
2013-04-21 20:21:00,50.0,21.0,29.96,West,259,9.0,-999.0,32,-99.99,,,-99.99,,2013-04-22 02:21:00,
2013-04-21 20:31:00,50.0,21.0,29.97,West,265,6.0,-999.0,31,-99.99,,,-99.99,,2013-04-22 02:31:00,
2013-04-21 20:41:00,50.0,21.0,29.97,West,265,6.0,-999.0,31,-99.99,,,-99.99,,2013-04-22 02:41:00,
2013-04-21 20:52:00,49.0,20.0,29.97,West,259,5.0,-999.0,32,-99.99,,,-99.99,,2013-04-22 02:52:00,
2013-04-21 21:01:00,49.0,21.0,29.97,WSW,246,5.0,-999.0,33,-99.99,,,-99.99,,2013-04-22 03:01:00,
2013-04-21 21:11:00,49.0,21.0,29.97,WSW,246,5.0,-999.0,33,-99.99,,,-99.99,,2013-04-22 03:11:00,
2013-04-21 21:22:00,49.0,22.0,29.97,West,261,3.0,-999.0,34,-99.99,,,-99.99,,2013-04-22 03:22:00,
2013-04-21 21:33:00,48.0,22.0,29.98,West,260,2.0,-999.0,35,-99.99,,,-99.99,,2013-04-22 03:33:00,
2013-04-21 21:42:00,48.0,22.0,29.98,West,260,2.0,-999.0,35,-99.99,,,-99.99,,2013-04-22 03:42:00,
2013-04-21 21:52:00,48.0,22.0,29.98,West,277,3.0,-999.0,36,-99.99,,,-99.99,,2013-04-22 03:52:00,
2013-04-21 22:02:00,47.0,22.0,29.98,NNW,342,1.0,-999.0,37,-99.99,,,-99.99,,2013-04-22 04:02:00,
2013-04-21 22:12:00,47.0,22.0,29.98,NNW,342,1.0,-999.0,37,-99.99,,,-99.99,,2013-04-22 04:12:00,
2013-04-21 22:23:00,43.0,27.0,29.98,NE,43,13.0,-999.0,53,-99.99,,,-99.99,,2013-04-22 04:23:00,
2013-04-21 22:32:00,43.0,27.0,29.98,NE,43,13.0,-999.0,53,-99.99,,,-99.99,,2013-04-22 04:32:00,
2013-04-21 22:43:00,43.0,27.0,29.98,NE,43,13.0,-999.0,53,-99.99,,,-99.99,,2013-04-22 04:43:00,
2013-04-21 22:52:00,38.0,31.0,29.98,NNE,26,23.0,-999.0,76,-99.99,,,-99.99,,2013-04-22 04:52:00,
2013-04-21 23:02:00,36.0,29.0,29.99,NE,53,30.0,-999.0,76,-99.99,,,-99.99,,2013-04-22 05:02:00,
2013-04-21 23:22:00,35.0,27.0,30.01,NE,45,24.0,-999.0,71,-99.99,,,-99.99,,2013-04-22 05:22:00,
2013-04-21 23:32:00,35.0,27.0,30.01,NE,45,24.0,-999.0,71,-99.99,,,-99.99,,2013-04-22 05:32:00,
2013-04-21 23:42:00,35.0,27.0,30.01,NE,45,24.0,-999.0,71,-99.99,,,-99.99,,2013-04-22 05:42:00,
2013-04-21 23:52:00,32.0,24.0,30.01,NNE,32,23.0,-999.0,71,-99.99,,,-99.99,,2013-04-22 05:52:00,